• In Hungary
  • List of Countries
  • For 7 days
  • Water Temperature
  • Satellite Maps
  • Weather Map
  • News
  • Weather Widgets
  • user-avatar
    Login

    Hourly Weather San Marcos La Laguna

    Today, 23 February, Friday

    Time Temperature Precipitation Wind Pressure Humidity
    00:00 +10°C° 0 mm 1 mps 585 mmHg 73%
    01:00 +10°C° 0 mm 1 mps 585 mmHg 73%
    02:00 +10°C° 0 mm 1 mps 585 mmHg 73%
    03:00 +10°C° 0 mm 1 mps 585 mmHg 73%
    04:00 +10°C° 0 mm 1 mps 584 mmHg 72%
    05:00 +9°C° 0 mm 1 mps 584 mmHg 71%
    06:00 +9°C° 0 mm 1 mps 584 mmHg 71%
    07:00 +12°C° 0 mm 1 mps 586 mmHg 61%
    08:00 +15°C° 0 mm 1 mps 588 mmHg 51%
    09:00 +19°C° 0 mm 1 mps 589 mmHg 41%
    10:00 +19°C° 0 mm 2 mps 590 mmHg 39%
    11:00 +20°C° 0 mm 2 mps 590 mmHg 36%
    12:00 +22°C° 0 mm 3 mps 590 mmHg 34%
    13:00 +21°C° 0 mm 3 mps 590 mmHg 35%
    14:00 +21°C° 0 mm 3 mps 589 mmHg 37%
    15:00 +21°C° 0 mm 4 mps 588 mmHg 38%
    16:00 +19°C° 0 mm 3 mps 587 mmHg 47%
    17:00 +17°C° 0 mm 2 mps 586 mmHg 56%
    18:00 +15°C° 0 mm 2 mps 585 mmHg 64%
    19:00 +14°C° 0 mm 1 mps 585 mmHg 68%
    20:00 +13°C° 0 mm 1 mps 585 mmHg 73%
    21:00 +11°C° 0 mm 1 mps 585 mmHg 77%
    22:00 +11°C° 0 mm 1 mps 585 mmHg 76%
    23:00 +11°C° 0 mm 1 mps 585 mmHg 76%

    Tomorrow, 24 February, Saturday

    Time Temperature Precipitation Wind Pressure Humidity
    00:00 +11°C° 0 mm 1 mps 585 mmHg 75%
    01:00 +11°C° 0 mm 1 mps 584 mmHg 75%
    02:00 +10°C° 0 mm 1 mps 584 mmHg 76%
    03:00 +10°C° 0 mm 1 mps 584 mmHg 77%
    04:00 +10°C° 0 mm 1 mps 584 mmHg 76%
    05:00 +10°C° 0 mm 1 mps 584 mmHg 76%
    06:00 +10°C° 0 mm 1 mps 584 mmHg 76%
    07:00 +12°C° 0 mm 1 mps 585 mmHg 67%
    08:00 +15°C° 0 mm 1 mps 587 mmHg 58%
    09:00 +19°C° 0 mm 1 mps 588 mmHg 50%
    10:00 +20°C° 0 mm 1 mps 588 mmHg 47%
    11:00 +20°C° 0 mm 2 mps 589 mmHg 44%
    12:00 +21°C° 0 mm 2 mps 589 mmHg 41%
    13:00 +20°C° 0.3 mm 2 mps 588 mmHg 45%
    14:00 +20°C° 0.3 mm 2 mps 587 mmHg 49%
    15:00 +19°C° 0.3 mm 2 mps 586 mmHg 53%
    16:00 +18°C° 0.8 mm 2 mps 586 mmHg 60%
    17:00 +16°C° 0.8 mm 1 mps 585 mmHg 66%
    18:00 +14°C° 0.8 mm 1 mps 584 mmHg 73%
    19:00 +13°C° 0.4 mm 1 mps 585 mmHg 75%
    20:00 +12°C° 0.4 mm 1 mps 585 mmHg 76%
    21:00 +11°C° 0.4 mm 1 mps 585 mmHg 78%
    22:00 +11°C° 0 mm 1 mps 585 mmHg 77%
    23:00 +10°C° 0 mm 1 mps 584 mmHg 75%

    Day after tomorrow, 25 February, Sunday

    Time Temperature Precipitation Wind Pressure Humidity
    00:00 +10°C° 0 mm 1 mps 584 mmHg 74%
    01:00 +10°C° 0 mm 1 mps 584 mmHg 72%
    02:00 +10°C° 0 mm 1 mps 583 mmHg 71%
    03:00 +10°C° 0 mm 1 mps 583 mmHg 70%
    04:00 +10°C° 0.1 mm 1 mps 583 mmHg 70%
    05:00 +9°C° 0.1 mm 1 mps 583 mmHg 70%
    06:00 +9°C° 0.1 mm 1 mps 583 mmHg 69%
    07:00 +12°C° 0 mm 1 mps 585 mmHg 63%
    08:00 +15°C° 0 mm 1 mps 587 mmHg 56%
    09:00 +19°C° 0 mm 1 mps 588 mmHg 49%
    10:00 +20°C° 0 mm 1 mps 589 mmHg 45%
    11:00 +22°C° 0 mm 1 mps 589 mmHg 42%
    12:00 +23°C° 0 mm 2 mps 589 mmHg 39%
    13:00 +21°C° 0.4 mm 2 mps 588 mmHg 42%
    14:00 +20°C° 0.4 mm 2 mps 587 mmHg 45%
    15:00 +19°C° 0.4 mm 2 mps 586 mmHg 49%
    16:00 +18°C° 0.5 mm 2 mps 586 mmHg 56%
    17:00 +16°C° 0.5 mm 2 mps 585 mmHg 63%
    18:00 +14°C° 0.5 mm 1 mps 585 mmHg 70%
    19:00 +13°C° 0.1 mm 1 mps 585 mmHg 73%
    20:00 +12°C° 0.1 mm 1 mps 585 mmHg 76%
    21:00 +11°C° 0.1 mm 1 mps 585 mmHg 80%
    22:00 +11°C° 0 mm 1 mps 585 mmHg 79%
    23:00 +10°C° 0 mm 1 mps 585 mmHg 78%

    26 February, Monday

    Time Temperature Precipitation Wind Pressure Humidity
    00:00 +10°C° 0 mm 1 mps 584 mmHg 77%
    01:00 +10°C° 0 mm 1 mps 584 mmHg 75%
    02:00 +10°C° 0 mm 1 mps 584 mmHg 73%
    03:00 +9°C° 0 mm 1 mps 583 mmHg 71%
    04:00 +9°C° 0 mm 1 mps 583 mmHg 69%
    05:00 +9°C° 0 mm 1 mps 584 mmHg 67%
    06:00 +9°C° 0 mm 1 mps 584 mmHg 66%
    07:00 +12°C° 0 mm 1 mps 585 mmHg 58%
    08:00 +15°C° 0 mm 1 mps 587 mmHg 51%
    09:00 +18°C° 0 mm 1 mps 589 mmHg 44%
    10:00 +19°C° 0 mm 2 mps 589 mmHg 40%
    11:00 +20°C° 0 mm 2 mps 589 mmHg 36%
    12:00 +21°C° 0 mm 3 mps 589 mmHg 32%
    13:00 +21°C° 0 mm 3 mps 589 mmHg 34%
    14:00 +21°C° 0 mm 3 mps 588 mmHg 36%
    15:00 +20°C° 0 mm 3 mps 587 mmHg 38%
    16:00 +18°C° 0.2 mm 3 mps 586 mmHg 47%
    17:00 +16°C° 0.2 mm 2 mps 586 mmHg 56%
    18:00 +15°C° 0.2 mm 2 mps 585 mmHg 64%
    19:00 +13°C° 0 mm 2 mps 585 mmHg 68%
    20:00 +12°C° 0 mm 1 mps 585 mmHg 72%
    21:00 +11°C° 0 mm 1 mps 585 mmHg 76%
    22:00 +10°C° 0 mm 1 mps 585 mmHg 75%
    23:00 +10°C° 0 mm 1 mps 585 mmHg 74%

    27 February, Tuesday

    Time Temperature Precipitation Wind Pressure Humidity
    00:00 +10°C° 0 mm 1 mps 584 mmHg 73%
    01:00 +10°C° 0 mm 1 mps 584 mmHg 74%
    02:00 +10°C° 0 mm 1 mps 584 mmHg 75%
    03:00 +10°C° 0 mm 1 mps 583 mmHg 76%
    04:00 +9°C° 0 mm 1 mps 583 mmHg 75%
    05:00 +9°C° 0 mm 1 mps 583 mmHg 74%
    06:00 +9°C° 0 mm 1 mps 584 mmHg 72%
    07:00 +11°C° 0 mm 1 mps 585 mmHg 62%
    08:00 +14°C° 0 mm 1 mps 587 mmHg 51%
    09:00 +18°C° 0 mm 1 mps 588 mmHg 40%
    10:00 +18°C° 0 mm 2 mps 589 mmHg 36%
    11:00 +20°C° 0 mm 2 mps 589 mmHg 32%
    12:00 +21°C° 0 mm 3 mps 589 mmHg 28%
    13:00 +21°C° 0 mm 3 mps 588 mmHg 30%
    14:00 +21°C° 0 mm 3 mps 588 mmHg 33%
    15:00 +21°C° 0 mm 4 mps 587 mmHg 35%
    16:00 +19°C° 0.1 mm 3 mps 586 mmHg 45%
    17:00 +17°C° 0.1 mm 2 mps 585 mmHg 56%
    18:00 +14°C° 0.1 mm 1 mps 585 mmHg 66%
    19:00 +13°C° 0 mm 1 mps 585 mmHg 71%
    20:00 +12°C° 0 mm 1 mps 584 mmHg 76%
    21:00 +11°C° 0 mm 1 mps 584 mmHg 81%
    22:00 +10°C° 0 mm 1 mps 584 mmHg 80%
    23:00 +10°C° 0 mm 1 mps 584 mmHg 79%

    28 February, Wednesday

    Time Temperature Precipitation Wind Pressure Humidity
    00:00 +10°C° 0 mm 1 mps 584 mmHg 78%
    01:00 +10°C° 0 mm 1 mps 583 mmHg 78%
    02:00 +10°C° 0 mm 1 mps 583 mmHg 78%
    03:00 +10°C° 0 mm 1 mps 583 mmHg 78%
    04:00 +10°C° 0 mm 1 mps 583 mmHg 78%
    05:00 +9°C° 0 mm 1 mps 583 mmHg 77%
    06:00 +9°C° 0 mm 1 mps 583 mmHg 77%
    07:00 +12°C° 0 mm 1 mps 584 mmHg 66%
    08:00 +15°C° 0 mm 1 mps 586 mmHg 54%
    09:00 +19°C° 0 mm 1 mps 588 mmHg 43%
    10:00 +20°C° 0 mm 1 mps 588 mmHg 39%
    11:00 +21°C° 0 mm 2 mps 588 mmHg 34%
    12:00 +23°C° 0 mm 2 mps 588 mmHg 30%
    13:00 +23°C° 0 mm 2 mps 588 mmHg 33%
    14:00 +21°C° 0 mm 2 mps 587 mmHg 36%
    15:00 +21°C° 0 mm 3 mps 586 mmHg 39%
    16:00 +19°C° 0.1 mm 2 mps 585 mmHg 48%
    17:00 +17°C° 0.1 mm 2 mps 584 mmHg 58%
    18:00 +15°C° 0.1 mm 1 mps 584 mmHg 67%
    19:00 +13°C° 0.1 mm 1 mps 584 mmHg 71%
    20:00 +12°C° 0.1 mm 1 mps 584 mmHg 75%
    21:00 +11°C° 0.1 mm 1 mps 583 mmHg 79%
    22:00 +11°C° 0 mm 1 mps 583 mmHg 78%
    23:00 +11°C° 0 mm 1 mps 583 mmHg 77%
    Show more